This is the latest recevied weather packets stored in our database for station/object OE3PDB-4. If no packets are shown the sender has not sent any weather packets the latest 10 day(s).
| Time | Temp. | Humidity | Pressure | Rain* | Wind** | Luminosity | Snow |
|---|---|---|---|---|---|---|---|
| 1777584010 | 7.78° C | 44% | 1027.8 hPa | 0 mm | - | - | - |
| 1777583410 | 8.33° C | 43% | 1027.7 hPa | 0 mm | - | - | - |
| 1777582810 | 8.33° C | 43% | 1027.7 hPa | 0 mm | - | - | - |
| 1777582210 | 8.33° C | 42% | 1027.8 hPa | 0 mm | - | - | - |
| 1777581610 | 8.89° C | 41% | 1027.8 hPa | 0 mm | - | - | - |
| 1777581010 | 9.44° C | 40% | 1027.8 hPa | 0 mm | - | - | - |
| 1777580410 | 9.44° C | 40% | 1027.7 hPa | 0 mm | - | - | - |
| 1777579810 | 9.44° C | 39% | 1027.7 hPa | 0 mm | - | - | - |
| 1777579210 | 9.44° C | 39% | 1027.6 hPa | 0 mm | - | - | - |
| 1777578610 | 10° C | 38% | 1027.4 hPa | 0 mm | - | - | - |
| 1777578010 | 10.56° C | 37% | 1027.5 hPa | 0 mm | - | - | - |
| 1777577410 | 11.11° C | 36% | 1027.4 hPa | 0 mm | - | - | - |
| 1777576810 | 11.11° C | 36% | 1027.4 hPa | 0 mm | - | - | - |
| 1777576211 | 11.67° C | 35% | 1027.3 hPa | 0 mm | - | - | - |
| 1777575610 | 12.22° C | 34% | 1027.2 hPa | 0 mm | - | - | - |
| 1777575010 | 12.78° C | 34% | 1027.2 hPa | 0 mm | - | - | - |
| 1777574411 | 14.44° C | 34% | 1027 hPa | 0 mm | - | - | - |
| 1777573810 | 15° C | 33% | 1026.9 hPa | 0 mm | - | - | - |
| 1777573211 | 15.56° C | 34% | 1026.8 hPa | 0 mm | - | - | - |
| 1777572611 | 15.56° C | 34% | 1026.6 hPa | 0 mm | - | - | - |
| 1777572011 | 16.11° C | 33% | 1026.6 hPa | 0 mm | - | - | - |
| 1777571411 | 16.11° C | 32% | 1026.5 hPa | 0 mm | - | - | - |
| 1777570811 | 16.11° C | 32% | 1026.5 hPa | 0 mm | - | - | - |
| 1777570211 | 16.11° C | 29% | 1026.5 hPa | 0 mm | - | - | - |
| 1777569611 | 16.67° C | 29% | 1026.5 hPa | 0 mm | - | - | - |
* Rain latest hour (hover to see other rain measurements)
** Current wind speed in m/s (hover to see current wind gust speed)